STARLINK-11145, 59945

Orbit data source: Space-Track

STARLINK-11145, 59945 is a payload satellite owned by SpaceX/Seattle (US) in LEO that was launched on Wed, 05 Jun 2024 UTC via an FALCON 9 launch vehicle from the Air Force Eastern Test Range (AFETR). Payload-class satellites include a variety of spacecraft equipped with specific instruments for various scientific and technological missions. These include communications satellites like Starlink; space stations such as the ISS; scientific satellites like the Hubble; Earth observation satellites from companies like Planet Labs, Umbra, and HawkEye 360; GPS; miniature CubeSats for education and research; and military/defense satellites.

Loading next visibility...
Identifier
59945, 2024-107A
Orbit
LEO
Last TLE update
16 hours ago
Origin
Manufacturer
SpaceX/Seattle
Mission
Operational spacecraft
Bus & Motor
STARLINK V2M, Unknown motor
Mass
730 kg wet, ~700 kg dry
Launch date (UTC)
2024-06-05 (11 months ago)
Launch vehicle
FALCON 9
Launch site
Air Force Eastern Test Range (AFETR)
Object type
Payload
Rocket body
Debris
Shape & HBR
Unknown
Radar Cross Section
Large (>1 m²)

Expand to show TLE details & history

TLE from 16 hours ago
0 STARLINK-11145
1 59945U 24107A   25128.72582166  .00000561  00000-0  94816-5 0  9996
2 59945  53.1582 314.9392 0000065  99.5653 260.5372 15.69698449 54248
Epoch: 2025-05-08T17:25Z
Definitive object data (Epoch: 2025-05-08T17:25:10.991Z)
Latitude
-0.00004°
Longitude
-173.14881°
Altitude
360.682 km
Speed
7.694 km/s
True Right ascension
20h 59m 45s
True Declination
0° 00' 00"
Sunlit
Object was in daylight at TLE epoch
Visualization TLE readout
Latitude
-27.31371°
Longitude
26.15362°
Altitude
367.896 km
Speed
7.689 km/s
Apparent Right ascension
08h 16m 59s
Apparent Declination
-38° 14' 56"
Sunlit
Object is in full shadow
Visualization observer readout
Local Sidereal Time
17:46:02
Azimuth
260.978° W
Elevation
-60.876°
Doppler factor
1
Orbital elements
Apogee altitude
360.065 km
Perigee altitude
359.977 km
Semi-major axis
6,738.158 km
Eccentricity
0.0000065
Inclination
53.1582°
RAAN
314.9392°
Arg. of periapsis
99.5653°
True anomaly
260.53647°
Mean anomaly
260.5372°
Eccentric anomaly
260.53683°
Mean motion
3.92402 °/min
BSTAR
0.0000094816
Orbital period
91.74 mins
Loading maneuver chart data...
Loading SW <> Apogee altitude chart data...
Loading historical data...
Loading historical data...
Loading historical data...
Loading historical data...
Loading historical data...
Loading historical data...
Loading historical data...

STARLINK-11145 Visibility forecast

Observer location: undefined°, undefined°

Span
Click to sort rows by Start time (UTC) header in descending order
Start Az.
Max El. time (UTC)
Max El. Az.
Max El.
End time (UTC)
End Az.
5 mins2025-05-09 14:59:40.844Z225.129° WSW2025-05-09 15:01:40.844Z211.27° SW40.745°2025-05-09 15:04:40.844Z52.359° ENE
5 mins2025-05-09 21:24:40.844Z324.38° NNW2025-05-09 21:26:40.844Z23.418° NE36.121°2025-05-09 21:29:40.844Z112.751° SE
|